This is the latest recevied weather packets stored in our database for station/object SV9TNF-51. If no packets are shown the sender has not sent any weather packets the latest 10 day(s).
| Time | Temp. | Humidity | Pressure | Rain* | Wind** | Luminosity | Snow |
|---|---|---|---|---|---|---|---|
| 1788546290 | 27.22° C | 45% | 1012.5 hPa | 0 mm | 0 m/s | - | - |
| 1788545989 | 27.22° C | 45% | 1012.5 hPa | 0 mm | 1.34 m/s, 126° | - | - |
| 1788545689 | 27.22° C | 45% | 1012.5 hPa | 0 mm | 0 m/s | - | - |
| 1788545389 | 27.22° C | 45% | 1012.5 hPa | 0 mm | 0 m/s | - | - |
| 1788545089 | 27.78° C | 44% | 1012.5 hPa | 0 mm | 0 m/s | - | - |
| 1788544789 | 27.78° C | 44% | 1012.2 hPa | 0 mm | 0.45 m/s, 127° | - | - |
| 1788544489 | 27.78° C | 44% | 1012.2 hPa | 0 mm | 0.89 m/s, 130° | - | - |
| 1788544188 | 27.78° C | 45% | 1012.2 hPa | 0 mm | 0 m/s | - | - |
| 1788543888 | 27.78° C | 44% | 1012.2 hPa | 0 mm | 2.24 m/s, 129° | - | - |
| 1788543588 | 27.78° C | 43% | 1012.2 hPa | 0 mm | 0 m/s | - | - |
| 1788543288 | 27.78° C | 44% | 1012.2 hPa | 0 mm | 0 m/s | - | - |
| 1788542988 | 27.78° C | 43% | 1012.2 hPa | 0 mm | 0.45 m/s, 134° | - | - |
| 1788542688 | 27.78° C | 42% | 1012.2 hPa | 0 mm | 1.34 m/s, 126° | - | - |
| 1788542388 | 27.78° C | 42% | 1012.2 hPa | 0 mm | 1.34 m/s, 128° | - | - |
| 1788542088 | 28.33° C | 42% | 1012.2 hPa | 0 mm | 0.45 m/s, 127° | - | - |
| 1788541788 | 28.33° C | 41% | 1011.9 hPa | 0 mm | 0.89 m/s, 128° | - | - |
| 1788541488 | 28.33° C | 40% | 1011.9 hPa | 0 mm | 0 m/s | - | - |
| 1788541188 | 28.33° C | 40% | 1011.9 hPa | 0 mm | 0.89 m/s, 124° | - | - |
| 1788540888 | 28.33° C | 40% | 1011.9 hPa | 0 mm | 0 m/s | - | - |
| 1788540587 | 28.89° C | 40% | 1011.9 hPa | 0 mm | 0.45 m/s, 135° | - | - |
| 1788540288 | 28.89° C | 38% | 1011.9 hPa | 0 mm | 0 m/s | - | - |
| 1788539988 | 28.89° C | 38% | 1011.9 hPa | 0 mm | 1.34 m/s, 97° | - | - |
| 1788539687 | 28.89° C | 38% | 1011.9 hPa | 0 mm | 0.89 m/s, 125° | - | - |
| 1788539387 | 29.44° C | 37% | 1011.9 hPa | 0 mm | 2.68 m/s, 125° | - | - |
| 1788539087 | 29.44° C | 37% | 1011.5 hPa | 0 mm | 1.34 m/s, 123° | - | - |
* Rain latest hour (hover to see other rain measurements)
** Current wind speed in m/s (hover to see current wind gust speed)